Weather History for Cut Bank, MT

Change the Weather History Date:

Wednesday, November 14, 2012

  Actual Average Record
Temperature  
Mean Temperature 35 °F 31 °F  
Max Temperature 42 °F 41 °F 68 °F (1999)
Min Temperature 28 °F 21 °F -14 °F (2014)
Degree Days  
Heating Degree Days 30 34  
Month to date heating degree days 455 440  
Since 1 July heating degree days 1626 1664  
Cooling Degree Days 0 0  
Month to date cooling degree days 0 0  
Year to date cooling degree days 210 162  
Moisture  
Dew Point 26 °F    
Average Humidity 69    
Maximum Humidity 78    
Minimum Humidity 60    
Precipitation  
Precipitation 0.00 in 0.01 in 0.46 in (1988)
Month to date precipitation 0.04 0.17  
Year to date precipitation 8.29 10.49  
Snow  
Snow 0.00 in - - ()
Snow Depth 2.00 in    
Sea Level Pressure  
Sea Level Pressure 30.10 in    
Wind  
Wind Speed 14 mph (WSW)    
Max Wind Speed 29 mph    
Max Gust Speed 35 mph    
Visibility 10 miles    
Events      
T = Trace of Precipitation, MM = Missing Value Source: NWS Daily Summary

Daily Weather History Graph

Daily Weather History Graph

Search for Another Location

Airport:

Trip Planner

Search our weather history database for the weather conditions in past years. The results will help you decide how hot, cold, wet, or windy it might be!

Date:

Astronomy

Nov. 14, 2012 Rise Set
Actual Time 7:37 AM MST 4:50 PM MST
Civil Twilight 7:02 AM MST 5:24 PM MST
Nautical Twilight 6:24 AM MST 6:02 PM MST
Astronomical Twilight 5:47 AM MST 6:39 PM MST
Moon 8:35 AM MST (11/14) 5:37 PM MST (11/14)
Length of Visible Light 10h 21m
Length of Day
9h 13m
New Moon, 1% of the Moon is Illuminated
Nov 14
New Moon
Nov 20
First Quarter
Nov 28
Full
Dec 6
Last Quarter
Dec 13
New

Hourly Weather History & Observations

Time (MST) Temp. Windchill Dew Point Humidity Pressure Visibility Wind Dir Wind Speed Gust Speed Precip Events Conditions
12:56 AM 34.0 °F 25.5 °F 24.1 °F 67% 30.06 in 10.0 mi WSW 11.5 mph - N/A   Clear
1:56 AM 35.1 °F 26.4 °F 25.0 °F 67% 30.04 in 10.0 mi WSW 12.7 mph - N/A   Clear
2:56 AM 34.0 °F 25.5 °F 25.0 °F 70% 30.04 in 10.0 mi WSW 11.5 mph - N/A   Clear
3:56 AM 34.0 °F 23.8 °F 25.0 °F 70% 30.03 in 10.0 mi WSW 16.1 mph - N/A   Clear
4:56 AM 34.0 °F 23.8 °F 25.0 °F 70% 30.03 in 10.0 mi WSW 16.1 mph - N/A   Clear
5:56 AM 36.0 °F 25.0 °F 26.1 °F 67% 30.02 in 10.0 mi West 20.7 mph 26.5 mph N/A   Clear
6:56 AM 35.6 °F 27.1 °F 26.6 °F 70% 29.95 in 10.0 mi West 12.7 mph - N/A   Clear
7:56 AM 33.1 °F 23.0 °F 27.0 °F 78% 30.04 in 10.0 mi WSW 15.0 mph - N/A   Clear
8:56 AM 33.1 °F 24.4 °F 27.0 °F 78% 30.04 in 10.0 mi SW 11.5 mph - N/A   Clear
9:56 AM 37.0 °F 27.0 °F 28.0 °F 70% 30.05 in 10.0 mi West 18.4 mph - N/A   Clear
10:56 AM 39.0 °F 29.3 °F 30.0 °F 70% 30.04 in 10.0 mi WSW 19.6 mph - N/A   Clear
11:56 AM 39.9 °F 29.5 °F 30.0 °F 68% 30.04 in 10.0 mi West 24.2 mph - N/A   Clear
12:56 PM 42.1 °F 33.6 °F 30.0 °F 62% 30.06 in 10.0 mi West 18.4 mph - N/A   Scattered Clouds
1:56 PM 41.0 °F 32.5 °F 28.9 °F 62% 30.08 in 10.0 mi West 17.3 mph - N/A   Clear
2:56 PM 39.9 °F 32.5 °F 28.9 °F 65% 30.10 in 10.0 mi West 12.7 mph - N/A   Clear
3:56 PM 37.9 °F 30.0 °F 28.0 °F 68% 30.12 in 10.0 mi West 12.7 mph - N/A   Clear
4:56 PM 34.0 °F 26.6 °F 26.1 °F 73% 30.15 in 10.0 mi West 9.2 mph - N/A   Clear
5:56 PM 32.0 °F 26.4 °F 26.1 °F 79% 30.18 in 10.0 mi West 5.8 mph - N/A   Clear
6:56 PM 28.9 °F 23.9 °F 23.0 °F 78% 30.20 in 10.0 mi West 4.6 mph - N/A   Clear
7:56 PM 30.0 °F 21.7 °F 23.0 °F 75% 30.21 in 10.0 mi West 9.2 mph - N/A   Clear
8:56 PM 30.0 °F 21.1 °F 21.9 °F 72% 30.22 in 10.0 mi WSW 10.4 mph - N/A   Clear
9:56 PM 28.9 °F 19.8 °F 23.0 °F 78% 30.21 in 10.0 mi WSW 10.4 mph - N/A   Clear
10:56 PM 33.1 °F 22.2 °F 23.0 °F 66% 30.20 in 10.0 mi West 17.3 mph - N/A   Clear
11:56 PM 32.0 °F 20.8 °F 21.9 °F 66% 30.20 in 10.0 mi West 17.3 mph - N/A   Clear